M I D A S
Marine Information and Data Acquisition System
Tripno 810 of the Zeeleeuw from 2004-11-22 08:19:51 to 2004-11-22 14:09:12
Back to CruiseResearch ActivitiesStationsMapUnderway DataData graphs

EquipmentUnitsComments
TimeDGPSUTC
LatitudeDGPSDM.mWGS84
LongitudeDGPSDM.mWGS84
SpeedMeteo Stationm/sRelative wind speed
DirectionMeteo StationdegRelative wind direction
TemperatureMeteo Stationdeg CelciusAir temperature
PressureMeteo StationPaAtmospheric pressure
HumidityMeteo Station%Relative humidity
Missing or incorrect values are displayed as -999
Metereological data collected by the RV Zeeleeuw from 2004-11-22 08:21:17 to 2004-11-22 14:15:54
                                                                                    Next 1000 lines
Time Latitude Longitude Speed Direction Temperature Pressure Humidity
2004-11-22 08:21:28 51°13.596 2°56.11 10 139 12 101530 87
2004-11-22 08:21:33 51°13.597 2°56.107 9.1 135 12 101530 87
2004-11-22 08:21:37 51°13.598 2°56.104 8.5 136 12 101540 87
2004-11-22 08:21:43 51°13.6 2°56.099 10.1 155 12 101540 87
2004-11-22 08:21:49 51°13.602 2°56.094 12 154 12 101540 87
2004-11-22 08:21:54 51°13.603 2°56.089 14.3 156 12 101540 87
2004-11-22 08:21:59 51°13.605 2°56.083 10.6 148 12 101530 87
2004-11-22 08:22:04 51°13.607 2°56.077 9.9 147 12 101530 87
2004-11-22 08:22:09 51°13.609 2°56.07 9.3 153 12.1 101530 87
2004-11-22 08:22:14 51°13.611 2°56.064 9.8 158 12.1 101530 87
2004-11-22 08:22:19 51°13.612 2°56.057 6.4 176 12.1 101540 87
2004-11-22 08:22:24 51°13.614 2°56.049 6.2 169 12.1 101540 87
2004-11-22 08:22:28 51°13.615 2°56.044 8 162 12.1 101530 87
2004-11-22 08:22:34 51°13.616 2°56.037 12.5 166 12.1 101530 87
2004-11-22 08:22:38 51°13.617 2°56.033 12.3 155 12.1 101530 87
2004-11-22 08:22:44 51°13.618 2°56.031 7.2 104 12.1 101530 87
2004-11-22 08:22:48 51°13.618 2°56.031 9.5 151 12.1 101540 86
2004-11-22 08:22:54 51°13.618 2°56.032 9.7 145 12.1 101540 86
2004-11-22 08:22:58 51°13.618 2°56.032 7.6 164 12.1 101550 86
2004-11-22 08:23:02 51°13.619 2°56.031 6.7 154 12.1 101550 86
2004-11-22 08:23:19 51°13.621 2°56.024 10.9 162 12.1 101540 86
2004-11-22 08:23:24 51°13.622 2°56.02 7.8 153 12.1 101540 86
2004-11-22 08:23:29 51°13.623 2°56.016 9.1 157 12.1 101540 86
2004-11-22 08:23:31 51°13.624 2°56.014 13.1 152 12.1 101540 86
2004-11-22 08:23:39 51°13.626 2°56.005 9.5 166 12.1 101550 86
2004-11-22 08:23:44 51°13.628 2°56 7 156 12.1 101550 86
2004-11-22 08:23:49 51°13.63 2°55.994 10.4 147 12.1 101540 86
2004-11-22 08:23:53 51°13.631 2°55.988 14.1 149 12.1 101540 86
2004-11-22 08:23:58 51°13.633 2°55.982 11.8 144 12.1 101530 86
2004-11-22 08:24:02 51°13.635 2°55.976 12 145 12.1 101530 86
2004-11-22 08:24:09 51°13.639 2°55.966 9.8 161 12.1 101540 86
2004-11-22 08:24:12 51°13.641 2°55.962 11.7 132 12.1 101540 86
2004-11-22 08:24:19 51°13.645 2°55.951 10.3 134 12.1 101530 86
2004-11-22 08:24:24 51°13.648 2°55.943 9.1 149 12.1 101530 86
2004-11-22 08:24:30 51°13.651 2°55.934 15.3 151 12.1 101530 86
2004-11-22 08:24:34 51°13.653 2°55.927 12.3 153 12.1 101530 86
2004-11-22 08:24:39 51°13.656 2°55.919 9.5 152 12.1 101530 86
2004-11-22 08:24:44 51°13.659 2°55.91 9.7 151 12.1 101530 86
2004-11-22 08:24:52 51°13.663 2°55.895 9.6 156 12.1 101530 86
2004-11-22 08:25:02 51°13.667 2°55.875 11.1 141 12.1 101530 86
2004-11-22 08:25:08 51°13.669 2°55.862 9.9 146 12.1 101530 86
2004-11-22 08:25:12 51°13.67 2°55.854 8 151 12.1 101530 86
2004-11-22 08:25:16 51°13.671 2°55.845 8.8 160 12.1 101530 86
2004-11-22 08:25:20 51°13.671 2°55.836 6.1 177 12.1 101530 86
2004-11-22 08:25:32 51°13.673 2°55.809 10.4 170 12.1 101530 86
2004-11-22 08:25:40 51°13.674 2°55.792 13.5 149 12.1 101530 86
2004-11-22 08:25:46 51°13.675 2°55.782 8.7 178 12.1 101540 86
2004-11-22 08:25:51 51°13.675 2°55.776 4.4 159 12.1 101540 86
2004-11-22 08:25:56 51°13.675 2°55.771 4 168 12.1 101530 86
2004-11-22 08:26:02 51°13.676 2°55.767 9.3 202 12.1 101530 86
2004-11-22 08:26:06 51°13.677 2°55.766 9.6 169 12.1 101510 86
2004-11-22 08:26:12 51°13.678 2°55.767 3.6 220 12.1 101510 86
2004-11-22 08:26:17 51°13.68 2°55.769 4.3 263 12.1 101530 86
2004-11-22 08:26:19 51°13.681 2°55.77 6.2 244 12.1 101530 86
2004-11-22 08:26:27 51°13.684 2°55.772 7.7 240 12.1 101560 86
2004-11-22 08:26:39 51°13.685 2°55.772 5.8 254 12.1 101540 86
2004-11-22 08:26:44 51°13.684 2°55.77 7.4 206 12.1 101540 86
2004-11-22 08:26:49 51°13.682 2°55.768 7.6 228 12.1 101530 86
2004-11-22 08:26:51 51°13.682 2°55.767 4.7 201 12.1 101530 86
2004-11-22 08:26:58 51°13.679 2°55.764 6.6 223 12.1 101530 86
2004-11-22 08:27:02 51°13.678 2°55.762 3 222 12.1 101530 86
2004-11-22 08:27:11 51°13.676 2°55.76 5.5 233 12.1 101530 86
2004-11-22 08:27:18 51°13.678 2°55.758 5.3 256 12.2 101530 87
2004-11-22 08:27:22 51°13.68 2°55.758 8.6 273 12.2 101530 87
2004-11-22 08:27:30 51°13.685 2°55.756 7.9 262 12.2 101530 87
2004-11-22 08:27:34 51°13.688 2°55.754 8.8 300 12.2 101530 87
2004-11-22 08:27:40 51°13.694 2°55.751 9.1 299 12.3 101530 87
2004-11-22 08:27:44 51°13.698 2°55.747 8.5 303 12.3 101530 87
2004-11-22 08:27:49 51°13.703 2°55.743 11.6 299 12.3 101530 86
2004-11-22 08:27:52 51°13.707 2°55.74 8.1 298 12.3 101530 86
2004-11-22 08:27:58 51°13.714 2°55.734 8.1 286 12.3 101530 86
2004-11-22 08:28:04 51°13.722 2°55.727 6.6 314 12.3 101530 86
2004-11-22 08:28:08 51°13.728 2°55.723 8 285 12.3 101530 86
2004-11-22 08:28:14 51°13.738 2°55.715 6.4 301 12.3 101530 86
2004-11-22 08:28:17 51°13.743 2°55.711 6.5 306 12.2 101520 86
2004-11-22 08:28:24 51°13.754 2°55.701 7.3 305 12.2 101520 86
2004-11-22 08:28:28 51°13.761 2°55.695 3.9 305 12.2 101540 86
2004-11-22 08:28:32 51°13.768 2°55.688 11.9 275 12.2 101540 86
2004-11-22 08:28:36 51°13.775 2°55.682 3.4 358 12.2 101520 86
2004-11-22 08:28:44 51°13.79 2°55.668 8.3 326 12.2 101520 86
2004-11-22 08:28:47 51°13.795 2°55.663 7.3 298 12.2 101530 86
2004-11-22 08:28:54 51°13.809 2°55.652 3 285 12.2 101530 86
2004-11-22 08:28:58 51°13.818 2°55.645 8.2 294 12.2 101560 86
2004-11-22 08:29:04 51°13.83 2°55.635 4.7 332 12.2 101560 86
2004-11-22 08:29:08 51°13.838 2°55.628 4.6 2 12.2 101530 86
2004-11-22 08:29:12 51°13.846 2°55.621 7.5 32 12.2 101530 86
2004-11-22 08:29:18 51°13.858 2°55.611 7.2 342 12.2 101540 86
2004-11-22 08:29:24 51°13.871 2°55.601 10.4 318 12.2 101540 86
2004-11-22 08:29:28 51°13.879 2°55.594 9 319 12.2 101530 86
2004-11-22 08:29:34 51°13.893 2°55.585 8.7 293 12.2 101530 86
2004-11-22 08:29:38 51°13.902 2°55.579 9.4 290 12.2 101530 86
2004-11-22 08:29:44 51°13.915 2°55.57 4.4 287 12.2 101530 86
2004-11-22 08:29:49 51°13.927 2°55.562 5 304 12.2 101520 86
2004-11-22 08:29:54 51°13.938 2°55.554 6.6 299 12.2 101520 86
2004-11-22 08:29:57 51°13.945 2°55.55 9.9 297 12.2 101520 86
2004-11-22 08:30:02 51°13.956 2°55.542 10.1 293 12.2 101520 86
2004-11-22 08:30:12 51°13.979 2°55.526 8.4 313 12.2 101520 86
2004-11-22 08:30:20 51°13.997 2°55.513 13.6 286 12.2 101530 86
2004-11-22 08:30:25 51°14.008 2°55.505 6.5 291 12.2 101530 86
2004-11-22 08:30:28 51°14.015 2°55.5 5.9 276 12.1 101520 86
2004-11-22 08:30:40 51°14.042 2°55.48 6.5 316 12.1 101530 86
2004-11-22 08:30:44 51°14.051 2°55.473 8.6 305 12.1 101530 86
2004-11-22 08:30:58 51°14.082 2°55.449 7.2 30 12.1 101540 86
2004-11-22 08:31:04 51°14.096 2°55.438 7.2 295 12.1 101540 86
2004-11-22 08:31:07 51°14.103 2°55.432 10.3 302 12.1 101530 86
2004-11-22 08:31:12 51°14.115 2°55.422 4.6 333 12.1 101530 86
2004-11-22 08:31:26 51°14.149 2°55.393 6.5 343 12 101540 86
2004-11-22 08:31:32 51°14.164 2°55.38 13.3 240 12 101540 86
2004-11-22 08:31:37 51°14.176 2°55.368 16 310 12 101540 86
2004-11-22 08:31:42 51°14.187 2°55.357 13 291 12 101540 86
2004-11-22 08:31:46 51°14.197 2°55.347 12 313 12 101530 86
2004-11-22 08:31:51 51°14.208 2°55.333 11.4 42 12 101530 86
2004-11-22 08:31:56 51°14.219 2°55.32 14.1 317 12 101500 86
2004-11-22 08:32:01 51°14.23 2°55.306 14.5 314 12 101500 86
2004-11-22 08:32:07 51°14.243 2°55.288 16.7 311 11.9 101530 86
2004-11-22 08:32:23 51°14.277 2°55.239 17.5 316 11.9 101530 86
2004-11-22 08:32:26 51°14.283 2°55.229 17.6 315 11.8 101520 86
2004-11-22 08:32:33 51°14.296 2°55.206 18.8 227 11.8 101520 86
2004-11-22 08:32:38 51°14.306 2°55.189 18.3 315 11.8 101500 86
2004-11-22 08:32:41 51°14.312 2°55.179 16.8 317 11.8 101500 86
2004-11-22 08:32:47 51°14.322 2°55.158 15.6 300 11.7 101510 86
2004-11-22 08:32:52 51°14.332 2°55.141 17.1 318 11.7 101510 86
2004-11-22 08:32:57 51°14.34 2°55.124 17.8 315 11.7 101500 86
2004-11-22 08:33:02 51°14.349 2°55.107 18.6 228 11.7 101500 86
2004-11-22 08:33:05 51°14.355 2°55.097 19 316 11.6 101500 86
2004-11-22 08:33:12 51°14.368 2°55.072 16.2 311 11.6 101500 86
2004-11-22 08:33:18 51°14.379 2°55.051 17.7 228 11.6 101490 86
2004-11-22 08:33:20 51°14.383 2°55.045 18.1 313 11.6 101490 86
2004-11-22 08:33:28 51°14.401 2°55.02 16.6 226 11.6 101490 86
2004-11-22 08:33:32 51°14.409 2°55.007 16.9 327 11.6 101490 86
2004-11-22 08:33:38 51°14.422 2°54.988 17.1 324 11.5 101480 86
2004-11-22 08:33:42 51°14.43 2°54.975 17.8 326 11.5 101480 86
2004-11-22 08:33:48 51°14.44 2°54.953 19.7 326 11.5 101490 87
2004-11-22 08:33:59 51°14.455 2°54.912 19.3 329 11.5 101460 87
2004-11-22 08:34:03 51°14.46 2°54.897 17.2 339 11.5 101460 87
2004-11-22 08:34:09 51°14.466 2°54.873 19.6 343 11.4 101490 87
2004-11-22 08:34:14 51°14.468 2°54.854 19.4 344 11.4 101490 87
2004-11-22 08:34:18 51°14.47 2°54.838 19.7 349 11.4 101460 87
2004-11-22 08:34:24 51°14.471 2°54.814 18.3 349 11.4 101460 87
2004-11-22 08:34:29 51°14.471 2°54.794 20.4 354 11.4 101480 88
2004-11-22 08:34:34 51°14.471 2°54.773 17.3 344 11.4 101480 88
2004-11-22 08:34:38 51°14.471 2°54.757 16.8 348 11.4 101490 88
2004-11-22 08:34:44 51°14.469 2°54.733 19.4 358 11.4 101490 88
2004-11-22 08:34:48 51°14.468 2°54.717 20.7 356 11.3 101490 88
2004-11-22 08:34:54 51°14.466 2°54.692 19.7 355 11.3 101490 88
2004-11-22 08:34:58 51°14.465 2°54.675 17.7 359 11.4 101490 88
2004-11-22 08:35:03 51°14.463 2°54.655 20.7 358 11.4 101490 88
2004-11-22 08:35:08 51°14.462 2°54.633 20.6 355 11.3 101500 88
2004-11-22 08:35:14 51°14.459 2°54.608 19 351 11.3 101500 88
2004-11-22 08:35:18 51°14.458 2°54.591 20.8 356 11.3 101480 89
2004-11-22 08:35:22 51°14.456 2°54.573 18.3 356 11.3 101480 89
2004-11-22 08:35:28 51°14.452 2°54.548 17.6 357 11.3 101500 89
2004-11-22 08:35:34 51°14.447 2°54.523 17.2 7 11.3 101500 89
2004-11-22 08:35:39 51°14.442 2°54.502 19.9 3 11.3 101490 89
2004-11-22 08:35:44 51°14.436 2°54.482 20.5 5 11.3 101490 89
2004-11-22 08:35:47 51°14.432 2°54.469 18.8 8 11.3 101500 89
2004-11-22 08:35:52 51°14.426 2°54.449 18.6 9 11.3 101500 89
2004-11-22 08:35:58 51°14.417 2°54.424 18.2 11 11.3 101500 89
2004-11-22 08:36:04 51°14.409 2°54.4 20.7 5 11.3 101500 89
2004-11-22 08:36:08 51°14.403 2°54.384 21.8 9 11.2 101520 89
2004-11-22 08:36:14 51°14.394 2°54.359 20.2 7 11.2 101520 89
2004-11-22 08:36:17 51°14.39 2°54.347 18.1 9 11.2 101520 89
2004-11-22 08:36:21 51°14.385 2°54.331 20.1 6 11.2 101520 89
2004-11-22 08:36:29 51°14.373 2°54.298 22 7 11.2 101510 90
2004-11-22 08:36:32 51°14.368 2°54.286 20.6 11 11.2 101510 90
2004-11-22 08:36:39 51°14.358 2°54.256 19.3 12 11.2 101500 90
2004-11-22 08:36:42 51°14.353 2°54.243 18.3 10 11.2 101500 90
2004-11-22 08:36:48 51°14.345 2°54.217 18.8 8 11.2 101520 90
2004-11-22 08:36:54 51°14.336 2°54.191 20 11 11.2 101520 90
2004-11-22 08:37:06 51°14.317 2°54.138 19.7 12 11.2 101530 90
2004-11-22 08:37:10 51°14.311 2°54.121 20.9 8 11.2 101530 90
2004-11-22 08:37:13 51°14.306 2°54.107 20.1 7 11.2 101530 90
2004-11-22 08:37:24 51°14.289 2°54.058 19.8 5 11.2 101530 90
2004-11-22 08:37:26 51°14.286 2°54.049 19.5 10 11.2 101520 90
2004-11-22 08:37:38 51°14.268 2°53.995 20.4 10 11.2 101520 90
2004-11-22 08:37:40 51°14.265 2°53.986 22.1 7 11.2 101520 90
2004-11-22 08:37:55 51°14.242 2°53.918 20.3 3 11.2 101520 90
2004-11-22 08:38:00 51°14.235 2°53.896 19.3 9 11.2 101530 90
2004-11-22 08:38:04 51°14.229 2°53.877 18 9 11.2 101530 90
2004-11-22 08:38:08 51°14.223 2°53.859 20.2 6 11.2 101510 91
2004-11-22 08:38:14 51°14.213 2°53.832 18.5 5 11.2 101510 91
2004-11-22 08:38:24 51°14.198 2°53.788 20.3 9 11.2 101510 91
2004-11-22 08:38:34 51°14.183 2°53.744 20.3 8 11.2 101520 90
2004-11-22 08:38:38 51°14.177 2°53.726 21.4 7 11.2 101500 90
2004-11-22 08:38:44 51°14.168 2°53.699 18.9 11 11.2 101500 90
2004-11-22 08:38:49 51°14.16 2°53.677 20.7 8 11.2 101510 90
2004-11-22 08:38:54 51°14.153 2°53.654 18.9 4 11.2 101510 90
2004-11-22 08:39:06 51°14.135 2°53.601 20.4 4 11.2 101520 91
2004-11-22 08:39:11 51°14.128 2°53.578 19.7 6 11.1 101520 91
2004-11-22 08:39:16 51°14.121 2°53.556 20.3 13 11.1 101520 91
2004-11-22 08:39:20 51°14.115 2°53.538 20.6 6 11.1 101520 91
2004-11-22 08:39:26 51°14.106 2°53.51 20.6 5 11.1 101520 91
2004-11-22 08:39:30 51°14.1 2°53.492 19.8 8 11.1 101510 91
2004-11-22 08:39:36 51°14.091 2°53.465 19.5 7 11.1 101510 91
2004-11-22 08:39:40 51°14.085 2°53.446 18.7 9 11.1 101520 91
2004-11-22 08:39:43 51°14.08 2°53.433 22 7 11.1 101520 91
2004-11-22 08:39:55 51°14.062 2°53.378 20.8 9 11.1 101520 91
2004-11-22 08:40:00 51°14.055 2°53.355 20.3 10 11.1 101520 91
2004-11-22 08:40:02 51°14.052 2°53.346 20.3 8 11.1 101520 91
2004-11-22 08:40:14 51°14.034 2°53.29 19.7 10 11.1 101520 91
2004-11-22 08:40:20 51°14.025 2°53.263 21.6 6 11.1 101500 91
2004-11-22 08:40:25 51°14.018 2°53.24 20.4 6 11.1 101500 91
2004-11-22 08:40:42 51°13.993 2°53.163 21.7 9 11.1 101510 91
2004-11-22 08:40:48 51°13.984 2°53.136 19.9 8 11.1 101520 91
2004-11-22 08:40:52 51°13.979 2°53.118 19.7 12 11.1 101520 91
2004-11-22 08:40:58 51°13.97 2°53.091 20.7 11 11.1 101520 91
2004-11-22 08:41:02 51°13.965 2°53.073 22 6 11.1 101520 91
2004-11-22 08:41:08 51°13.956 2°53.046 20.4 6 11.1 101500 91
2004-11-22 08:41:13 51°13.949 2°53.024 20.6 10 11.1 101500 91
2004-11-22 08:41:17 51°13.943 2°53.006 22.6 10 11.1 101520 91
2004-11-22 08:41:22 51°13.936 2°52.984 20.7 5 11.1 101520 91
2004-11-22 08:41:28 51°13.927 2°52.957 21.5 3 11.1 101530 91
2004-11-22 08:41:33 51°13.92 2°52.935 18.7 10 11.1 101530 91
2004-11-22 08:41:40 51°13.911 2°52.904 21 5 11.1 101530 91
2004-11-22 08:41:52 51°13.894 2°52.85 20.2 5 11.1 101530 91
2004-11-22 08:42:08 51°13.871 2°52.78 20.3 10 11.1 101510 91
2004-11-22 08:42:13 51°13.863 2°52.758 18.5 8 11.1 101510 91
2004-11-22 08:42:22 51°13.851 2°52.718 20.3 7 11.1 101510 91
2004-11-22 08:42:28 51°13.843 2°52.692 21.1 8 11.2 101520 91
2004-11-22 08:42:33 51°13.836 2°52.67 20.2 10 11.2 101520 91
2004-11-22 08:42:37 51°13.83 2°52.652 20.3 9 11.2 101530 91
2004-11-22 08:42:42 51°13.823 2°52.63 21.6 11 11.2 101530 91
2004-11-22 08:42:48 51°13.815 2°52.604 18.7 9 11.1 101520 91
2004-11-22 08:42:52 51°13.809 2°52.586 20.9 10 11.1 101520 91
2004-11-22 08:42:58 51°13.801 2°52.559 18.3 10 11.2 101520 91
2004-11-22 08:43:01 51°13.797 2°52.546 20.5 5 11.2 101520 91
2004-11-22 08:43:08 51°13.786 2°52.515 20.1 9 11.2 101530 91
2004-11-22 08:43:13 51°13.779 2°52.493 21.4 8 11.2 101530 91
2004-11-22 08:43:18 51°13.772 2°52.471 21.1 7 11.2 101520 91
2004-11-22 08:43:23 51°13.764 2°52.449 20 9 11.2 101520 91
2004-11-22 08:43:28 51°13.757 2°52.427 20.8 8 11.2 101520 91
2004-11-22 08:43:33 51°13.75 2°52.405 19.3 5 11.2 101520 91
2004-11-22 08:43:36 51°13.746 2°52.392 19.5 9 11.2 101510 91
2004-11-22 08:43:42 51°13.737 2°52.365 19.9 7 11.2 101510 91
2004-11-22 08:43:48 51°13.729 2°52.338 20.2 7 11.2 101530 91
2004-11-22 08:43:51 51°13.725 2°52.325 21.6 6 11.2 101530 91
2004-11-22 08:44:02 51°13.709 2°52.276 19.6 7 11.2 101530 91
2004-11-22 08:44:08 51°13.7 2°52.249 19.6 8 11.2 101520 91
2004-11-22 08:44:11 51°13.696 2°52.235 21.1 8 11.2 101520 91
2004-11-22 08:44:18 51°13.686 2°52.204 19.3 10 11.2 101530 91
2004-11-22 08:44:23 51°13.679 2°52.181 20.9 8 11.2 101530 91
2004-11-22 08:44:28 51°13.672 2°52.158 20.8 7 11.2 101530 91
2004-11-22 08:44:32 51°13.667 2°52.14 20.5 9 11.2 101530 91
2004-11-22 08:44:37 51°13.66 2°52.117 21.5 6 11.2 101540 90
2004-11-22 08:44:42 51°13.653 2°52.094 20.1 11 11.2 101540 90
2004-11-22 08:44:48 51°13.644 2°52.067 19.2 10 11.2 101540 90
2004-11-22 08:44:49 51°13.643 2°52.063 19.7 8 11.2 101540 90
2004-11-22 08:45:03 51°13.623 2°52 20.5 10 11.2 101540 90
2004-11-22 08:45:15 51°13.605 2°51.946 19.9 9 11.2 101510 90
2004-11-22 08:45:29 51°13.585 2°51.882 18.9 9 11.3 101550 90
2004-11-22 08:45:34 51°13.577 2°51.859 21.3 6 11.3 101550 90
2004-11-22 08:45:39 51°13.57 2°51.837 18 9 11.2 101520 90
2004-11-22 08:45:45 51°13.561 2°51.811 21.1 6 11.2 101520 90
2004-11-22 08:45:48 51°13.557 2°51.798 20.6 10 11.2 101520 90
2004-11-22 08:45:54 51°13.548 2°51.771 19.7 8 11.2 101520 90
2004-11-22 08:46:00 51°13.539 2°51.744 19.2 6 11.2 101550 90
2004-11-22 08:46:03 51°13.535 2°51.731 21.5 7 11.2 101550 90
2004-11-22 08:46:18 51°13.514 2°51.663 21.4 10 11.2 101540 90
2004-11-22 08:46:23 51°13.506 2°51.641 19.7 7 11.2 101540 90
2004-11-22 08:46:38 51°13.484 2°51.572 18.5 11 11.2 101530 91
2004-11-22 08:46:42 51°13.478 2°51.554 21.6 8 11.2 101530 91
2004-11-22 08:46:48 51°13.469 2°51.527 20 10 11.2 101540 91
2004-11-22 08:46:51 51°13.464 2°51.514 20 13 11.2 101540 91
2004-11-22 08:46:58 51°13.454 2°51.482 18.8 11 11.2 101540 91
2004-11-22 08:47:02 51°13.448 2°51.463 19.7 9 11.2 101540 91
2004-11-22 08:47:08 51°13.439 2°51.435 19.5 9 11.2 101530 91
2004-11-22 08:47:10 51°13.437 2°51.426 19.7 9 11.2 101530 91
2004-11-22 08:47:16 51°13.428 2°51.399 20.6 5 11.2 101530 91
2004-11-22 08:47:20 51°13.422 2°51.381 20.7 10 11.2 101530 91
2004-11-22 08:47:28 51°13.41 2°51.345 18.7 5 11.2 101540 91
2004-11-22 08:47:32 51°13.404 2°51.327 20 10 11.2 101540 91
2004-11-22 08:47:37 51°13.397 2°51.304 19.9 11 11.1 101550 91
2004-11-22 08:47:42 51°13.39 2°51.282 18.2 11 11.1 101550 91
2004-11-22 08:47:48 51°13.381 2°51.255 19.1 9 11.2 101550 91
2004-11-22 08:47:53 51°13.373 2°51.232 18.9 7 11.2 101550 91
2004-11-22 08:48:07 51°13.353 2°51.168 20.2 3 11.2 101540 91
2004-11-22 08:48:12 51°13.345 2°51.145 21.8 9 11.2 101540 91
2004-11-22 08:48:16 51°13.339 2°51.127 19.9 15 11.2 101540 91
2004-11-22 08:48:22 51°13.331 2°51.099 19.5 7 11.2 101540 91
2004-11-22 08:48:27 51°13.323 2°51.076 19 9 11.2 101540 91
2004-11-22 08:48:41 51°13.303 2°51.012 19.8 13 11.2 101540 91
2004-11-22 08:48:48 51°13.293 2°50.981 19.6 14 11.2 101540 91
2004-11-22 08:48:52 51°13.288 2°50.963 20.7 10 11.2 101540 91
2004-11-22 08:48:55 51°13.283 2°50.949 20.9 11 11.2 101540 90
2004-11-22 08:49:06 51°13.266 2°50.9 19.6 11 11.2 101550 90
2004-11-22 08:49:12 51°13.257 2°50.874 19.3 14 11.2 101550 90
2004-11-22 08:49:17 51°13.249 2°50.852 18.4 10 11.2 101540 90
2004-11-22 08:49:22 51°13.241 2°50.83 19.2 14 11.2 101540 90
2004-11-22 08:49:26 51°13.234 2°50.813 19.7 13 11.2 101540 90
2004-11-22 08:49:32 51°13.224 2°50.787 19.2 11 11.2 101540 90
2004-11-22 08:49:34 51°13.22 2°50.778 18.5 14 11.2 101540 90
2004-11-22 08:49:44 51°13.204 2°50.734 21.4 12 11.2 101540 90
2004-11-22 08:49:50 51°13.194 2°50.707 19.1 12 11.2 101550 90
2004-11-22 08:49:56 51°13.184 2°50.681 19.4 12 11.2 101550 90
2004-11-22 08:49:58 51°13.18 2°50.672 21.4 15 11.2 101540 90
2004-11-22 08:50:06 51°13.167 2°50.637 18.1 10 11.2 101540 90
2004-11-22 08:50:11 51°13.159 2°50.615 20.1 10 11.2 101550 90
2004-11-22 08:50:16 51°13.151 2°50.592 20.6 10 11.2 101550 90
2004-11-22 08:50:20 51°13.144 2°50.574 19.6 11 11.2 101540 90
2004-11-22 08:50:26 51°13.134 2°50.549 19.7 13 11.2 101540 90
2004-11-22 08:50:31 51°13.126 2°50.526 21.3 12 11.2 101530 90
2004-11-22 08:50:36 51°13.118 2°50.504 20.6 11 11.2 101530 90
2004-11-22 08:50:51 51°13.092 2°50.439 20.1 11 11.3 101540 90
2004-11-22 08:51:00 51°13.077 2°50.4 19.7 10 11.3 101540 90
2004-11-22 08:51:05 51°13.068 2°50.378 19.3 15 11.3 101540 90
2004-11-22 08:51:10 51°13.06 2°50.356 18.7 11 11.3 101550 90
2004-11-22 08:51:14 51°13.053 2°50.339 19.4 12 11.3 101550 90
2004-11-22 08:51:24 51°13.037 2°50.295 20.3 12 11.3 101530 90
2004-11-22 08:51:30 51°13.028 2°50.268 20.2 13 11.3 101560 90
2004-11-22 08:51:36 51°13.017 2°50.241 20.2 12 11.3 101560 90
2004-11-22 08:51:41 51°13.01 2°50.219 19 14 11.3 101530 89
2004-11-22 08:51:46 51°13.001 2°50.197 18.8 14 11.3 101530 89
2004-11-22 08:51:48 51°12.998 2°50.188 19 10 11.3 101540 90
2004-11-22 08:51:54 51°12.988 2°50.161 19.1 10 11.3 101540 90
2004-11-22 08:52:15 51°12.953 2°50.068 20.6 7 11.3 101540 90
2004-11-22 08:52:18 51°12.948 2°50.055 18.2 7 11.3 101550 89
2004-11-22 08:52:25 51°12.937 2°50.023 19.6 10 11.3 101550 89
2004-11-22 08:52:30 51°12.929 2°50.001 19.2 11 11.3 101550 89
2004-11-22 08:52:32 51°12.926 2°49.992 18.4 14 11.3 101550 89
2004-11-22 08:52:38 51°12.916 2°49.965 17.9 12 11.3 101550 89
2004-11-22 08:52:45 51°12.905 2°49.935 20.9 11 11.3 101550 89
2004-11-22 08:52:50 51°12.896 2°49.913 21.3 12 11.3 101560 89
2004-11-22 08:52:54 51°12.89 2°49.895 17.3 9 11.3 101560 89
2004-11-22 08:53:00 51°12.879 2°49.869 19.2 6 11.3 101550 89
2004-11-22 08:53:04 51°12.873 2°49.851 17 17 11.3 101550 89
2004-11-22 08:53:10 51°12.863 2°49.824 19.2 17 11.3 101560 89
2004-11-22 08:53:14 51°12.856 2°49.807 19.8 14 11.3 101560 89
2004-11-22 08:53:20 51°12.846 2°49.78 18.7 15 11.3 101540 89
2004-11-22 08:53:25 51°12.837 2°49.758 18.2 10 11.3 101540 89
2004-11-22 08:53:30 51°12.829 2°49.736 20.2 10 11.3 101550 89
2004-11-22 08:53:35 51°12.821 2°49.713 19.1 9 11.3 101550 89
2004-11-22 08:53:40 51°12.812 2°49.691 22 13 11.3 101550 89
2004-11-22 08:53:44 51°12.806 2°49.673 19.4 10 11.3 101550 89
2004-11-22 08:53:48 51°12.799 2°49.655 19.1 9 11.3 101550 89
2004-11-22 08:53:54 51°12.789 2°49.629 20.2 12 11.3 101550 89
2004-11-22 08:54:06 51°12.769 2°49.576 20.2 13 11.3 101550 89
2004-11-22 08:54:11 51°12.76 2°49.554 19.5 11 11.3 101560 89
2004-11-22 08:54:16 51°12.752 2°49.533 20.6 13 11.3 101560 89
2004-11-22 08:54:20 51°12.745 2°49.515 19.7 15 11.3 101550 89
2004-11-22 08:54:24 51°12.739 2°49.497 20.2 13 11.3 101550 89
2004-11-22 08:54:30 51°12.729 2°49.471 20.8 9 11.3 101550 89
2004-11-22 08:54:36 51°12.719 2°49.444 19.9 9 11.3 101550 89
2004-11-22 08:54:40 51°12.713 2°49.426 21 11 11.3 101560 89
2004-11-22 08:54:45 51°12.705 2°49.404 19.3 11 11.3 101560 89
2004-11-22 08:54:50 51°12.696 2°49.383 19.3 14 11.3 101560 89
2004-11-22 08:54:56 51°12.686 2°49.356 21.1 12 11.3 101560 89
2004-11-22 08:55:01 51°12.678 2°49.334 20.4 14 11.3 101560 89
2004-11-22 08:55:05 51°12.672 2°49.316 19.9 10 11.3 101560 89
2004-11-22 08:55:16 51°12.653 2°49.267 19.9 14 11.3 101550 89
2004-11-22 08:55:21 51°12.645 2°49.244 18.8 14 11.3 101560 89
2004-11-22 08:55:26 51°12.637 2°49.222 19.3 11 11.3 101560 89
2004-11-22 08:55:30 51°12.63 2°49.204 18.8 13 11.4 101570 89
2004-11-22 08:55:36 51°12.62 2°49.178 17.9 11 11.4 101570 89
2004-11-22 08:55:41 51°12.611 2°49.155 18.1 11 11.4 101560 89
2004-11-22 08:55:53 51°12.592 2°49.101 18.1 9 11.4 101560 89
2004-11-22 08:56:02 51°12.577 2°49.061 19.8 10 11.3 101550 89
2004-11-22 08:56:08 51°12.567 2°49.035 19.9 12 11.3 101560 89
2004-11-22 08:56:20 51°12.547 2°48.981 19.1 16 11.4 101570 89
2004-11-22 08:56:25 51°12.539 2°48.958 19.5 13 11.4 101570 89
2004-11-22 08:56:30 51°12.531 2°48.936 20.5 10 11.3 101550 89
2004-11-22 08:56:34 51°12.524 2°48.918 20.2 11 11.3 101550 89
2004-11-22 08:56:38 51°12.517 2°48.9 18.2 7 11.4 101560 89
2004-11-22 08:56:53 51°12.492 2°48.834 20.8 10 11.4 101560 89
2004-11-22 08:57:02 51°12.477 2°48.793 19.2 13 11.4 101550 89
2004-11-22 08:57:08 51°12.467 2°48.766 20.3 13 11.4 101560 89
2004-11-22 08:57:20 51°12.447 2°48.713 18.9 9 11.4 101570 89
2004-11-22 08:57:25 51°12.438 2°48.691 19.8 14 11.4 101570 89
2004-11-22 08:57:30 51°12.43 2°48.668 21 7 11.4 101540 89
2004-11-22 08:57:34 51°12.423 2°48.65 19.9 13 11.4 101540 89
2004-11-22 08:57:38 51°12.417 2°48.632 18.1 13 11.4 101550 89
2004-11-22 08:57:54 51°12.391 2°48.561 18.2 12 11.4 101550 89
2004-11-22 08:58:00 51°12.381 2°48.536 17.8 7 11.4 101560 89
2004-11-22 08:58:04 51°12.374 2°48.518 18.2 10 11.4 101560 89
2004-11-22 08:58:09 51°12.366 2°48.496 19.6 11 11.4 101550 89
2004-11-22 08:58:14 51°12.357 2°48.474 18.9 13 11.4 101550 89
2004-11-22 08:58:17 51°12.352 2°48.461 19.6 14 11.4 101550 89
2004-11-22 08:58:23 51°12.342 2°48.435 20 17 11.4 101550 89
2004-11-22 08:58:30 51°12.331 2°48.404 18.1 11 11.4 101560 89
2004-11-22 08:58:34 51°12.325 2°48.386 21.4 12 11.4 101560 89
2004-11-22 08:58:40 51°12.315 2°48.36 19.2 13 11.4 101550 89
2004-11-22 08:58:45 51°12.307 2°48.337 19.9 16 11.4 101550 89
2004-11-22 08:58:47 51°12.304 2°48.328 20.2 11 11.4 101550 89
2004-11-22 08:59:02 51°12.279 2°48.263 19.9 14 11.4 101550 89
2004-11-22 08:59:08 51°12.27 2°48.236 18.1 15 11.4 101560 89
2004-11-22 08:59:10 51°12.266 2°48.227 20.7 12 11.4 101560 89
2004-11-22 08:59:18 51°12.253 2°48.192 19.7 17 11.4 101560 89
2004-11-22 08:59:23 51°12.245 2°48.171 19.1 12 11.4 101560 89
2004-11-22 08:59:26 51°12.24 2°48.158 19.1 14 11.4 101550 89
2004-11-22 08:59:31 51°12.232 2°48.136 18.7 12 11.4 101550 89
2004-11-22 08:59:38 51°12.22 2°48.105 21.5 12 11.4 101570 89
2004-11-22 08:59:43 51°12.212 2°48.083 19.7 14 11.4 101570 89
2004-11-22 08:59:48 51°12.204 2°48.062 19.5 15 11.4 101560 89
2004-11-22 08:59:50 51°12.201 2°48.053 22.1 14 11.4 101560 89
2004-11-22 09:00:14 51°12.162 2°47.947 19 13 11.4 101560 89
2004-11-22 09:00:18 51°12.155 2°47.929 19.6 10 11.4 101550 90
2004-11-22 09:00:24 51°12.146 2°47.902 18 13 11.4 101550 90
2004-11-22 09:00:28 51°12.139 2°47.884 19.7 15 11.4 101550 90
2004-11-22 09:00:34 51°12.129 2°47.858 20.5 15 11.4 101550 90
2004-11-22 09:00:40 51°12.118 2°47.831 19.7 14 11.4 101560 90
2004-11-22 09:00:43 51°12.113 2°47.818 20.5 14 11.4 101560 90
2004-11-22 09:00:50 51°12.102 2°47.787 22.2 14 11.4 101560 90
2004-11-22 09:00:52 51°12.099 2°47.778 20.2 15 11.4 101560 90
2004-11-22 09:01:00 51°12.085 2°47.742 18.8 7 11.4 101550 90
2004-11-22 09:01:05 51°12.077 2°47.719 21.4 13 11.4 101550 90
2004-11-22 09:01:10 51°12.069 2°47.697 18.5 16 11.4 101550 90
2004-11-22 09:01:12 51°12.066 2°47.688 18.6 14 11.4 101550 90
2004-11-22 09:01:20 51°12.053 2°47.651 19.5 14 11.4 101550 90
2004-11-22 09:01:25 51°12.045 2°47.629 18.5 14 11.4 101550 90
2004-11-22 09:01:30 51°12.036 2°47.606 19.3 17 11.4 101570 90
2004-11-22 09:01:34 51°12.03 2°47.588 17.6 13 11.4 101570 90
2004-11-22 09:01:40 51°12.02 2°47.561 20.3 14 11.4 101550 90
2004-11-22 09:01:45 51°12.012 2°47.538 20.3 13 11.4 101550 90
2004-11-22 09:01:48 51°12.007 2°47.525 18.9 12 11.4 101560 90
2004-11-22 09:01:55 51°11.996 2°47.493 19.2 13 11.4 101560 90
2004-11-22 09:02:14 51°11.964 2°47.409 19.3 15 11.4 101570 90
2004-11-22 09:02:19 51°11.956 2°47.386 19.9 10 11.4 101550 90
2004-11-22 09:02:30 51°11.938 2°47.337 19.6 14 11.4 101560 90
2004-11-22 09:02:36 51°11.928 2°47.309 19.8 14 11.4 101560 90
2004-11-22 09:02:40 51°11.922 2°47.291 18.8 18 11.4 101560 90
2004-11-22 09:02:46 51°11.912 2°47.264 18.4 17 11.4 101560 90
2004-11-22 09:02:48 51°11.908 2°47.255 17.1 15 11.4 101550 90
2004-11-22 09:03:23 51°11.849 2°47.097 17.9 14 -999 -999 -999
2004-11-22 09:03:28 51°11.841 2°47.074 19 12 11.4 101560 90
2004-11-22 09:03:30 51°11.838 2°47.065 19.2 16 11.4 101560 90
2004-11-22 09:03:44 51°11.815 2°47.001 21.1 12 11.4 101560 90
2004-11-22 09:03:51 51°11.803 2°46.97 21.3 15 11.4 101560 90
2004-11-22 09:03:54 51°11.798 2°46.956 20.3 13 11.4 101560 90
2004-11-22 09:03:58 51°11.791 2°46.939 19.5 13 11.4 101590 90
2004-11-22 09:04:04 51°11.781 2°46.912 18.4 13 11.4 101590 90
2004-11-22 09:04:10 51°11.771 2°46.885 18.4 15 11.4 101560 90
2004-11-22 09:04:14 51°11.765 2°46.867 19.3 13 11.4 101560 90
2004-11-22 09:04:20 51°11.755 2°46.84 18.1 10 11.4 101560 90
2004-11-22 09:04:26 51°11.745 2°46.813 17.5 12 11.4 101560 90
2004-11-22 09:04:28 51°11.742 2°46.804 19.8 14 11.4 101560 90
2004-11-22 09:04:36 51°11.729 2°46.767 19 10 11.4 101560 90
2004-11-22 09:04:41 51°11.721 2°46.744 19.1 11 11.4 101560 90
2004-11-22 09:04:46 51°11.712 2°46.722 20.7 13 11.4 101560 90
2004-11-22 09:04:50 51°11.706 2°46.703 19.9 8 11.4 101550 90
2004-11-22 09:04:54 51°11.699 2°46.685 18.5 12 11.4 101550 90
2004-11-22 09:05:00 51°11.69 2°46.658 18.4 12 11.4 101570 90
2004-11-22 09:05:06 51°11.679 2°46.631 18.4 13 11.4 101570 90
2004-11-22 09:05:10 51°11.672 2°46.613 19.3 16 11.4 101570 90
2004-11-22 09:05:16 51°11.662 2°46.586 19.2 15 11.4 101570 90
2004-11-22 09:05:18 51°11.659 2°46.576 19.5 13 11.4 101550 90
2004-11-22 09:05:26 51°11.645 2°46.54 18.8 14 11.4 101550 90
2004-11-22 09:05:30 51°11.639 2°46.523 19.6 12 11.4 101570 90
2004-11-22 09:05:36 51°11.628 2°46.497 18.2 14 11.4 101570 90
2004-11-22 09:05:40 51°11.621 2°46.479 17.3 9 11.4 101560 90
2004-11-22 09:05:46 51°11.611 2°46.452 17.8 9 11.4 101560 90
2004-11-22 09:05:51 51°11.603 2°46.429 18.4 8 11.4 101560 90
2004-11-22 09:05:56 51°11.595 2°46.407 19.1 12 11.4 101560 90
2004-11-22 09:06:00 51°11.588 2°46.388 19.3 10 11.4 101550 90
2004-11-22 09:06:06 51°11.578 2°46.361 20.1 13 11.4 101550 90
2004-11-22 09:06:10 51°11.571 2°46.343 18.7 13 11.4 101560 90
2004-11-22 09:06:23 51°11.55 2°46.284 20 13 11.4 101560 90
2004-11-22 09:06:28 51°11.541 2°46.262 19.8 10 11.4 101560 90
2004-11-22 09:06:33 51°11.533 2°46.239 19.8 11 11.4 101560 90
2004-11-22 09:06:38 51°11.525 2°46.216 20 13 11.4 101570 90
2004-11-22 09:06:42 51°11.518 2°46.198 20.4 13 11.4 101570 90
2004-11-22 09:06:55 51°11.496 2°46.139 20.5 6 11.5 101540 90
2004-11-22 09:07:00 51°11.488 2°46.116 20.5 9 11.5 101560 90
2004-11-22 09:07:05 51°11.479 2°46.093 20.8 14 11.5 101560 90
2004-11-22 09:07:10 51°11.471 2°46.07 20 12 11.5 101560 90
2004-11-22 09:07:14 51°11.464 2°46.052 20.5 10 11.5 101560 90
2004-11-22 09:07:20 51°11.455 2°46.024 18.8 12 11.5 101550 90
2004-11-22 09:07:23 51°11.45 2°46.011 17.9 12 11.5 101550 90
2004-11-22 09:07:30 51°11.438 2°45.979 20.3 15 11.5 101560 90
2004-11-22 09:07:34 51°11.432 2°45.961 21.2 16 11.5 101560 90
2004-11-22 09:07:54 51°11.398 2°45.87 20.9 15 11.5 101560 90
2004-11-22 09:07:58 51°11.391 2°45.853 18.7 12 11.5 101550 90
2004-11-22 09:08:04 51°11.381 2°45.826 19.8 14 11.5 101550 90
2004-11-22 09:08:08 51°11.374 2°45.807 19.1 13 11.5 101550 90
2004-11-22 09:08:14 51°11.364 2°45.78 19.9 14 11.5 101550 90
2004-11-22 09:08:19 51°11.357 2°45.757 18.3 13 11.5 101560 90
2004-11-22 09:08:24 51°11.348 2°45.734 19.8 11 11.5 101560 90
2004-11-22 09:08:28 51°11.341 2°45.716 21.2 12 11.5 101550 90
2004-11-22 09:08:32 51°11.335 2°45.698 20.8 12 11.5 101550 90
2004-11-22 09:08:39 51°11.323 2°45.666 21 11 11.5 101550 90
2004-11-22 09:08:54 51°11.303 2°45.594 20 6 11.5 101550 90
2004-11-22 09:09:00 51°11.295 2°45.564 19.6 355 11.5 101560 90
2004-11-22 09:09:02 51°11.293 2°45.555 20.4 1 11.5 101560 90
2004-11-22 09:09:14 51°11.28 2°45.495 20.2 3 11.5 101560 90
2004-11-22 09:09:19 51°11.275 2°45.471 20.9 7 11.5 101560 91
2004-11-22 09:09:24 51°11.269 2°45.445 20.7 5 11.5 101560 91
2004-11-22 09:09:30 51°11.263 2°45.415 20.3 2 11.5 101570 91
2004-11-22 09:09:34 51°11.259 2°45.395 18.9 1 11.5 101570 91
2004-11-22 09:09:40 51°11.253 2°45.364 19.4 4 11.5 101580 91
2004-11-22 09:09:45 51°11.248 2°45.339 18.7 6 11.5 101580 91
2004-11-22 09:09:50 51°11.243 2°45.314 20 8 11.5 101560 91
2004-11-22 09:09:54 51°11.239 2°45.293 19.2 3 11.5 101560 91
2004-11-22 09:10:00 51°11.233 2°45.263 19.6 4 11.5 101570 90
2004-11-22 09:10:04 51°11.229 2°45.242 19.3 3 11.5 101570 90
2004-11-22 09:10:10 51°11.223 2°45.212 20.2 5 11.5 101580 90
2004-11-22 09:10:15 51°11.217 2°45.186 19.2 5 11.5 101580 90
2004-11-22 09:10:31 51°11.2 2°45.106 21.7 3 11.5 101560 90
2004-11-22 09:10:36 51°11.195 2°45.081 21.1 2 11.5 101560 90
2004-11-22 09:10:41 51°11.19 2°45.056 21 2 11.5 101560 90
2004-11-22 09:10:45 51°11.186 2°45.036 20.2 1 11.5 101560 90
2004-11-22 09:10:51 51°11.179 2°45.006 18.6 7 11.5 101560 90
2004-11-22 09:10:54 51°11.177 2°44.991 20.6 7 11.5 101560 90
2004-11-22 09:11:13 51°11.156 2°44.896 19.6 2 11.5 101570 90
2004-11-22 09:11:20 51°11.149 2°44.861 19.2 5 11.5 101580 90
2004-11-22 09:11:22 51°11.147 2°44.851 19.5 2 11.5 101580 90
2004-11-22 09:11:30 51°11.138 2°44.811 22.1 6 11.5 101580 90
2004-11-22 09:11:54 51°11.112 2°44.692 17.7 9 11.5 101580 90
2004-11-22 09:12:00 51°11.106 2°44.662 20.3 7 11.6 101570 90
2004-11-22 09:12:04 51°11.102 2°44.642 22.1 4 11.6 101570 90
2004-11-22 09:12:10 51°11.096 2°44.612 20.5 3 11.5 101570 90
2004-11-22 09:12:12 51°11.094 2°44.602 19 6 11.5 101570 90
2004-11-22 09:12:22 51°11.082 2°44.553 19.6 3 11.5 101570 90
2004-11-22 09:12:28 51°11.076 2°44.523 17.3 6 11.6 101580 91
2004-11-22 09:12:32 51°11.072 2°44.503 19.5 9 11.6 101580 91
2004-11-22 09:12:38 51°11.065 2°44.473 20.2 3 11.6 101580 90
2004-11-22 09:12:43 51°11.06 2°44.448 20.2 5 11.6 101580 90
2004-11-22 09:12:47 51°11.056 2°44.428 19.3 10 11.6 101570 90
2004-11-22 09:12:52 51°11.051 2°44.403 20 5 11.6 101570 90
2004-11-22 09:13:03 51°11.039 2°44.347 19.7 4 11.6 101570 90
2004-11-22 09:13:08 51°11.033 2°44.322 21.3 3 11.6 101570 90
2004-11-22 09:13:13 51°11.028 2°44.298 21.4 5 11.6 101570 90
2004-11-22 09:13:18 51°11.022 2°44.273 20.7 4 11.6 101570 90
2004-11-22 09:13:22 51°11.018 2°44.253 20.3 9 11.6 101570 90
2004-11-22 09:13:34 51°11.005 2°44.193 22 4 11.6 101580 90
2004-11-22 09:13:40 51°10.998 2°44.163 18.7 3 11.6 101580 91
2004-11-22 09:13:45 51°10.992 2°44.138 21.4 5 11.6 101580 91
2004-11-22 09:13:48 51°10.989 2°44.123 20.1 4 11.6 101570 91
2004-11-22 09:13:54 51°10.982 2°44.093 19.1 6 11.6 101570 91
2004-11-22 09:14:06 51°10.97 2°44.033 21 5 11.6 101580 90
2004-11-22 09:14:12 51°10.964 2°44.002 19.2   11.6 101580 90
2004-11-22 09:14:17 51°10.958 2°43.977 19.4 5 11.6 101580 91
2004-11-22 09:14:21 51°10.954 2°43.957 18.2 1 11.6 101580 91
2004-11-22 09:14:27 51°10.948 2°43.927 21.1 3 11.6 101580 91
2004-11-22 09:14:32 51°10.943 2°43.902 20.5 5 11.6 101580 91
2004-11-22 09:14:37 51°10.937 2°43.877 21 2 11.6 101590 91
2004-11-22 09:14:42 51°10.932 2°43.852 20.6 5 11.6 101590 91
2004-11-22 09:14:47 51°10.926 2°43.827 20.1 2 11.6 101580 91
2004-11-22 09:14:52 51°10.921 2°43.802 20.2 6 11.6 101580 91
2004-11-22 09:14:56 51°10.917 2°43.782 19.6 4 11.6 101580 91
2004-11-22 09:15:02 51°10.91 2°43.751 19.9 5 11.6 101590 91
2004-11-22 09:15:06 51°10.906 2°43.731 18.8 5 11.6 101580 91
2004-11-22 09:15:12 51°10.899 2°43.701 18.7 5 11.6 101580 91
2004-11-22 09:15:14 51°10.897 2°43.691 20.1 9 11.6 101580 91
2004-11-22 09:15:20 51°10.891 2°43.661 20.5 4 11.6 101590 91
2004-11-22 09:15:26 51°10.884 2°43.631 21 3 11.6 101590 91
2004-11-22 09:15:32 51°10.878 2°43.601 17.7 4 11.6 101580 91
2004-11-22 09:15:34 51°10.876 2°43.591 19.3 4 11.6 101590 91
2004-11-22 09:15:42 51°10.868 2°43.551 20.8 5 11.6 101590 91
2004-11-22 09:15:45 51°10.864 2°43.536 21.7 6 11.6 101580 91
2004-11-22 09:15:52 51°10.857 2°43.501 21.3 8 11.6 101580 91
2004-11-22 09:15:56 51°10.853 2°43.481 20.6 4 11.6 101580 91
2004-11-22 09:16:02 51°10.846 2°43.45 19.1 1 11.6 101580 91
2004-11-22 09:16:07 51°10.841 2°43.425 19.4 7 11.6 101590 91
2004-11-22 09:16:12 51°10.836 2°43.4 18.6 3 11.6 101590 91
2004-11-22 09:16:23 51°10.824 2°43.346 20.5 5 11.6 101590 91
2004-11-22 09:16:28 51°10.819 2°43.321 19.2 7 11.6 101570 91
2004-11-22 09:16:33 51°10.814 2°43.296 20.6 5 11.6 101570 91
2004-11-22 09:16:38 51°10.808 2°43.271 21.4 7 11.6 101570 91
2004-11-22 09:16:42 51°10.804 2°43.251 19.8 6 11.6 101570 91
2004-11-22 09:16:55 51°10.79 2°43.186 20.8 7 11.6 101580 91
2004-11-22 09:16:58 51°10.786 2°43.171 21.5 5 11.6 101580 91
2004-11-22 09:17:04 51°10.78 2°43.141 21.2 7 11.6 101580 91
2004-11-22 09:17:10 51°10.773 2°43.111 19 4 11.6 101580 91
2004-11-22 09:17:15 51°10.767 2°43.086 19.7 7 11.6 101580 91
2004-11-22 09:17:20 51°10.762 2°43.06 19 6 11.6 101590 91
2004-11-22 09:17:24 51°10.758 2°43.04 21.5 7 11.6 101590 91
2004-11-22 09:17:38 51°10.743 2°42.97 18.5 4 11.6 101580 91
2004-11-22 09:17:43 51°10.738 2°42.945 18.9 6 11.6 101580 91
2004-11-22 09:17:48 51°10.732 2°42.921 21.2 6 11.6 101590 91
2004-11-22 09:17:50 51°10.73 2°42.911 20.1 5 11.6 101590 91
2004-11-22 09:18:14 51°10.704 2°42.792 20.8   11.6 101590 91
2004-11-22 09:18:18 51°10.7 2°42.772 19.4 5 11.6 101570 91
2004-11-22 09:18:24 51°10.694 2°42.742 20.8 1 11.6 101570 91
2004-11-22 09:18:30 51°10.687 2°42.712 18.7 10 11.5 101580 91
2004-11-22 09:18:58 51°10.66 2°42.573 21.3 357 11.6 101580 91
2004-11-22 09:19:02 51°10.657 2°42.553 21.9 1 11.6 101580 91
2004-11-22 09:19:08 51°10.654 2°42.522 20.5 360 11.6 101580 91
2004-11-22 09:19:12 51°10.652 2°42.501 19.9 356 11.6 101580 91
2004-11-22 09:19:18 51°10.65 2°42.47 20.3 356 11.6 101560 91
2004-11-22 09:19:22 51°10.648 2°42.449 19 356 11.6 101560 91
2004-11-22 09:19:26 51°10.647 2°42.428 18.3 357 11.6 101550 91
2004-11-22 09:19:32 51°10.645 2°42.396 19.9 354 11.6 101550 91
2004-11-22 09:19:38 51°10.643 2°42.365 18.5 357 11.6 101570 91
2004-11-22 09:19:42 51°10.641 2°42.344 19.7 355 11.6 101570 91
2004-11-22 09:19:48 51°10.638 2°42.312 18.7 356 11.6 101570 91
2004-11-22 09:19:53 51°10.635 2°42.287 20.5 359 11.6 101570 91
2004-11-22 09:19:58 51°10.633 2°42.261 21.7 359 11.6 101560 91
2004-11-22 09:20:02 51°10.631 2°42.24 19.2 357 11.6 101560 91
2004-11-22 09:20:08 51°10.628 2°42.209 20.5 357 11.5 101570 91
2004-11-22 09:20:13 51°10.625 2°42.183 20 353 11.5 101570 91
2004-11-22 09:20:18 51°10.622 2°42.157 18.3 1 11.6 101560 91
2004-11-22 09:20:20 51°10.62 2°42.147 20 1 11.6 101560 91
2004-11-22 09:20:34 51°10.61 2°42.075 21.6 1 11.6 101560 91
2004-11-22 09:20:38 51°10.607 2°42.054 21.1 359 11.6 101560 91
2004-11-22 09:20:44 51°10.602 2°42.024 19.7 2 11.6 101560 91
2004-11-22 09:20:48 51°10.599 2°42.003 20.4 1 11.6 101550 91
2004-11-22 09:20:54 51°10.594 2°41.972 20.6 2 11.6 101550 91
2004-11-22 09:20:56 51°10.592 2°41.962 20.4 3 11.6 101570 91
2004-11-22 09:21:06 51°10.584 2°41.91 18.9 358 11.6 101570 91
2004-11-22 09:21:10 51°10.581 2°41.89 21.7 3 11.6 101570 91
2004-11-22 09:21:14 51°10.578 2°41.869 22   11.6 101570 91
2004-11-22 09:21:21 51°10.572 2°41.833 22.1 5 11.6 101560 91
2004-11-22 09:21:26 51°10.568 2°41.807 20.8 3 11.6 101560 91
2004-11-22 09:21:30 51°10.565 2°41.787 19.7 1 11.6 101590 91
2004-11-22 09:21:36 51°10.56 2°41.756 19.3 359 11.6 101590 91
2004-11-22 09:21:39 51°10.558 2°41.74 19.7 1 11.6 101550 91
2004-11-22 09:21:45 51°10.553 2°41.709 20.1 356 11.6 101550 91
2004-11-22 09:21:51 51°10.549 2°41.679 20.4 358 11.6 101550 91
2004-11-22 09:21:56 51°10.546 2°41.653 20.8 358 11.6 101550 91
2004-11-22 09:22:00 51°10.543 2°41.632 20.9 6 11.6 101560 91
2004-11-22 09:22:06 51°10.538 2°41.601 20.5 5 11.6 101560 91
2004-11-22 09:22:10 51°10.535 2°41.58 21.3 2 11.6 101560 91
2004-11-22 09:22:14 51°10.532 2°41.559 21.6 1 11.6 101560 91
2004-11-22 09:22:21 51°10.527 2°41.523 19.7 359 11.6 101550 91
2004-11-22 09:22:26 51°10.523 2°41.497 19.7 1 11.6 101550 91
2004-11-22 09:22:30 51°10.52 2°41.477 18.4 2 11.6 101570 91
2004-11-22 09:22:36 51°10.515 2°41.446 20.1 359 11.6 101570 91
2004-11-22 09:22:38 51°10.514 2°41.436 21.9 2 11.6 101560 92
2004-11-22 09:22:46 51°10.508 2°41.395 21.3 358 11.6 101560 92
2004-11-22 09:22:50 51°10.505 2°41.374 19 4 11.6 101560 91
2004-11-22 09:22:56 51°10.501 2°41.344 19.7 356 11.6 101560 91
2004-11-22 09:23:00 51°10.498 2°41.323 20.9 359 11.6 101570 91
2004-11-22 09:23:06 51°10.494 2°41.292 19.7 2 11.6 101570 91
2004-11-22 09:23:10 51°10.491 2°41.272 19.7 2 11.6 101560 92
2004-11-22 09:23:16 51°10.486 2°41.241 21.5 356 11.6 101560 92
2004-11-22 09:23:20 51°10.483 2°41.22 18.9 359 11.6 101560 92
2004-11-22 09:23:26 51°10.479 2°41.19 21 357 11.6 101560 92
2004-11-22 09:23:27 51°10.478 2°41.185 20.8 359 11.6 101550 92
2004-11-22 09:23:36 51°10.471 2°41.139 20.6 356 11.6 101550 92
2004-11-22 09:23:41 51°10.468 2°41.113 21.6 3 11.6 101550 92
2004-11-22 09:23:46 51°10.464 2°41.088 21.2 360 11.6 101550 92
2004-11-22 09:23:48 51°10.462 2°41.078 19.5 359 11.6 101570 92
2004-11-22 09:23:56 51°10.456 2°41.037 22.6 360 11.6 101570 92
2004-11-22 09:24:00 51°10.453 2°41.017 21.8 3 11.6 101550 92
2004-11-22 09:24:06 51°10.449 2°40.986 20.3 1 11.6 101550 92
2004-11-22 09:24:22 51°10.437 2°40.904 19.8 357 11.6 101550 92
2004-11-22 09:24:42 51°10.423 2°40.801 19.6 360 -999 -999 -999
2004-11-22 09:24:48 51°10.418 2°40.771 20.8 358 -999 -999 -999
2004-11-22 09:24:52 51°10.416 2°40.75 20.4 359 11.6 101550 92
2004-11-22 09:24:57 51°10.412 2°40.725 17.8   11.6 101560 92
2004-11-22 09:25:02 51°10.409 2°40.699 20.6 6 11.6 101560 92
2004-11-22 09:25:06 51°10.406 2°40.679 19.9 359 11.6 101560 92
2004-11-22 09:25:12 51°10.401 2°40.649 20.4 1 11.6 101550 92
2004-11-22 09:25:16 51°10.399 2°40.628 21.6 359 11.6 101540 92
2004-11-22 09:25:21 51°10.395 2°40.603 19.6 5 11.6 101540 92
2004-11-22 09:25:25 51°10.392 2°40.583 18.6   11.6 101540 92
2004-11-22 09:25:35 51°10.384 2°40.533 19.9 359 11.6 101540 92
2004-11-22 09:25:39 51°10.381 2°40.512 18.1 3 11.6 101550 92
2004-11-22 09:25:45 51°10.376 2°40.482 22.5 3 11.6 101550 92
2004-11-22 09:25:55 51°10.368 2°40.431 20.6 4 11.6 101570 92
2004-11-22 09:25:59 51°10.365 2°40.41 21.4 359 11.6 101560 92
2004-11-22 09:26:05 51°10.361 2°40.38 19.3 2 11.6 101560 92
2004-11-22 09:26:15 51°10.354 2°40.328 21.9 2 11.6 101550 92
2004-11-22 09:26:19 51°10.351 2°40.307 21.4   11.6 101560 92
2004-11-22 09:26:25 51°10.346 2°40.276 19.8 1 11.6 101560 92
2004-11-22 09:26:35 51°10.339 2°40.224 17.4   11.6 101550 92
2004-11-22 09:26:39 51°10.336 2°40.204 20.7 2 11.6 101540 92
2004-11-22 09:26:45 51°10.331 2°40.173 21.1 2 11.6 101540 92
2004-11-22 09:26:55 51°10.323 2°40.122 21.9 358 11.6 101540 92
2004-11-22 09:26:59 51°10.32 2°40.102 21.3 359 11.6 101570 92
2004-11-22 09:27:05 51°10.316 2°40.072 22.4   11.6 101570 92
2004-11-22 09:27:15 51°10.31 2°40.021 20.4 6 11.6 101550 92
2004-11-22 09:27:19 51°10.307 2°40.001 21.2 2 11.6 101560 92
2004-11-22 09:27:25 51°10.302 2°39.971 19.8 3 11.6 101560 92
2004-11-22 09:27:35 51°10.295 2°39.921 19 5 11.6 101540 93
2004-11-22 09:27:39 51°10.292 2°39.901 21.3 359 11.6 101550 93
2004-11-22 09:27:45 51°10.288 2°39.872 21.9 1 11.6 101550 93
2004-11-22 09:27:55 51°10.281 2°39.822 20.9 1 11.6 101570 93
2004-11-22 09:27:59 51°10.278 2°39.802 20.4 2 11.6 101550 93
2004-11-22 09:28:05 51°10.274 2°39.773 20.8 4 11.6 101550 93
2004-11-22 09:28:15 51°10.266 2°39.723 21.3 3 11.6 101570 93
2004-11-22 09:28:20 51°10.263 2°39.698 20.5 6 11.6 101550 93
2004-11-22 09:28:24 51°10.26 2°39.678 18.9 1 11.6 101550 93
2004-11-22 09:28:30 51°10.256 2°39.648 20.3 3 11.6 101570 93
2004-11-22 09:28:32 51°10.254 2°39.638 18.9 357 11.6 101570 93
2004-11-22 09:28:42 51°10.248 2°39.587 20.8   11.6 101570 93
2004-11-22 09:28:47 51°10.245 2°39.562 19.8 1 11.6 101560 93
2004-11-22 09:28:52 51°10.242 2°39.537 20.5 1 11.6 101560 93
2004-11-22 09:28:56 51°10.24 2°39.517 19 6 11.6 101570 93
2004-11-22 09:29:02 51°10.236 2°39.486 21.2 4 11.6 101570 93
2004-11-22 09:29:07 51°10.234 2°39.461 20.3 357 11.6 101570 93
2004-11-22 09:29:12 51°10.231 2°39.436 19.2   11.6 101570 93
2004-11-22 09:29:16 51°10.228 2°39.416 19.7 3 11.6 101570 93
2004-11-22 09:29:22 51°10.225 2°39.386 19.9 2 11.6 101570 93
2004-11-22 09:29:26 51°10.223 2°39.366 18.7 2 11.6 101570 93
2004-11-22 09:29:32 51°10.22 2°39.336 18.8 2 11.6 101570 93
2004-11-22 09:29:36 51°10.217 2°39.316 19.5 2 11.6 101560 93
2004-11-22 09:29:42 51°10.214 2°39.287 19.7 3 11.6 101560 93
2004-11-22 09:29:48 51°10.21 2°39.257 20 356 11.6 101560 93
2004-11-22 09:29:52 51°10.207 2°39.237 22.2 2 11.6 101560 93
2004-11-22 09:29:55 51°10.205 2°39.222 20.2 1 11.6 101570 93
2004-11-22 09:30:01 51°10.202 2°39.193 22.1 7 11.6 101570 93
2004-11-22 09:30:06 51°10.199 2°39.168 21.1 1 11.6 101570 93
2004-11-22 09:30:12 51°10.196 2°39.139 20.1 3 11.6 101580 93
2004-11-22 09:30:16 51°10.194 2°39.119 21.5 1 11.6 101570 93
2004-11-22 09:30:22 51°10.19 2°39.089 22 356 11.6 101570 93
2004-11-22 09:30:27 51°10.187 2°39.064 19.3 359 11.6 101570 93
2004-11-22 09:30:32 51°10.184 2°39.04 21.4 2 11.6 101550 93
2004-11-22 09:30:37 51°10.181 2°39.015 21.6   11.6 101550 93
2004-11-22 09:30:42 51°10.178 2°38.99 18.1 1 11.6 101570 93
2004-11-22 09:30:46 51°10.176 2°38.971 20.7 3 11.6 101580 93
2004-11-22 09:30:52 51°10.172 2°38.942 20.6 2 11.6 101580 93
2004-11-22 09:30:57 51°10.169 2°38.917 19.4 2 11.6 101550 93
2004-11-22 09:31:02 51°10.166 2°38.892 20.4 8 11.6 101550 93
2004-11-22 09:31:04 51°10.164 2°38.883 21.8 2 11.6 101590 93
2004-11-22 09:31:12 51°10.16 2°38.843 21.4   11.6 101590 93
2004-11-22 09:31:17 51°10.157 2°38.819 20.8 358 11.6 101560 93
2004-11-22 09:31:20 51°10.155 2°38.804 21.3 5 11.6 101560 93
2004-11-22 09:31:38 51°10.145 2°38.714 23 1 11.6 101580 93
2004-11-22 09:31:42 51°10.142 2°38.694 21.9 2 11.6 101580 93
2004-11-22 09:31:48 51°10.139 2°38.664 20.4 5 11.6 101550 93
2004-11-22 09:31:50 51°10.137 2°38.653 21 2 11.6 101550 93
2004-11-22 09:32:14 51°10.124 2°38.532 20.2 3 11.6 101550 93
2004-11-22 09:32:20 51°10.12 2°38.502 20.4 359 11.7 101570 93
2004-11-22 09:32:24 51°10.119 2°38.481 22.1 358 11.7 101570 93
2004-11-22 09:32:30 51°10.115 2°38.451 22.7 358 11.7 101580 93
2004-11-22 09:32:34 51°10.113 2°38.431 21.3 355 11.7 101580 93
2004-11-22 09:32:40 51°10.109 2°38.4 20.6 4 11.7 101560 93
2004-11-22 09:32:45 51°10.106 2°38.375 22.5 1 11.7 101560 93
2004-11-22 09:32:50 51°10.104 2°38.349 20.7 358 11.7 101570 93
2004-11-22 09:32:54 51°10.101 2°38.329 21 1 11.7 101570 93
2004-11-22 09:33:00 51°10.098 2°38.298 22.3 359 11.7 101540 94
2004-11-22 09:33:04 51°10.095 2°38.277 20.9 2 11.7 101540 94
2004-11-22 09:33:14 51°10.089 2°38.227 22.5 1 11.7 101550 93
2004-11-22 09:33:18 51°10.086 2°38.207 22.8 359 11.7 101530 93
2004-11-22 09:33:24 51°10.083 2°38.176 20.4 355 11.7 101530 93
2004-11-22 09:33:30 51°10.079 2°38.146 18.6 1 11.7 101540 93
2004-11-22 09:33:35 51°10.076 2°38.12 19.7 6 11.7 101540 93
2004-11-22 09:33:48 51°10.069 2°38.053 19.6 2 11.7 101510 94
2004-11-22 09:33:54 51°10.065 2°38.022 19.8 5 11.7 101510 94
2004-11-22 09:33:59 51°10.062 2°37.997 20.3 2 11.7 101550 93
2004-11-22 09:34:04 51°10.059 2°37.971 22 3 11.7 101550 93
2004-11-22 09:34:18 51°10.051 2°37.899 20.5   11.7 101560 93
2004-11-22 09:34:24 51°10.047 2°37.869 19.5 2 11.7 101560 93
2004-11-22 09:34:29 51°10.044 2°37.844 19 1 11.7 101530 93
2004-11-22 09:34:32 51°10.042 2°37.829 18.8 6 11.7 101530 93
2004-11-22 09:34:38 51°10.039 2°37.798 20 1 11.7 101540 93
2004-11-22 09:34:42 51°10.036 2°37.777 18.4   11.7 101540 93
2004-11-22 09:34:52 51°10.03 2°37.726 18.8 357 11.7 101540 93
2004-11-22 09:34:59 51°10.025 2°37.691 21.9   11.7 101560 93
2004-11-22 09:35:16 51°10.014 2°37.604 21 3 11.7 101560 93
2004-11-22 09:35:20 51°10.012 2°37.583 21.8 2 11.7 101550 93
2004-11-22 09:35:26 51°10.009 2°37.552 21.8 359 11.7 101550 93
2004-11-22 09:35:30 51°10.006 2°37.531 19 4 11.7 101550 93
2004-11-22 09:35:36 51°10.003 2°37.5 21.9 2 11.7 101550 93
2004-11-22 09:35:39 51°10.001 2°37.485 21.9 3 11.7 101550 93
2004-11-22 09:36:04 51°9.985 2°37.357 19.4 2 11.7 101550 93
2004-11-22 09:36:08 51°9.983 2°37.336 19.9 5 11.7 101580 94
2004-11-22 09:36:12 51°9.98 2°37.315 19.4 358 11.7 101580 94
2004-11-22 09:36:16 51°9.978 2°37.294 19.2 360 11.7 101570 94
2004-11-22 09:36:34 51°9.966 2°37.202 22.1 4 11.7 101570 94
2004-11-22 09:36:39 51°9.963 2°37.176 19.7 359 11.7 101570 93
2004-11-22 09:36:42 51°9.961 2°37.161 19.1 1 11.7 101570 93
2004-11-22 09:36:58 51°9.951 2°37.079 21.2 2 11.7 101540 94
2004-11-22 09:37:03 51°9.948 2°37.054 22.7 4 11.7 101540 94
2004-11-22 09:37:08 51°9.946 2°37.029 19.6 359 11.7 101560 94
2004-11-22 09:37:10 51°9.945 2°37.019 21.3 1 11.7 101560 94
2004-11-22 09:37:34 51°9.931 2°36.897 20.1 357 11.7 101560 94
2004-11-22 09:37:40 51°9.929 2°36.866 21.9 354 11.7 101550 94
2004-11-22 09:37:44 51°9.927 2°36.846 20.9 358 11.7 101550 94
2004-11-22 09:37:50 51°9.926 2°36.815 21.6 357 11.7 101560 94
2004-11-22 09:37:54 51°9.925 2°36.795 22.2 355 11.7 101560 94
2004-11-22 09:37:59 51°9.925 2°36.769 20.1 356 11.7 101550 94
2004-11-22 09:38:04 51°9.925 2°36.743 20 357 11.7 101550 94
2004-11-22 09:38:08 51°9.925 2°36.723 20 359 11.7 101550 94
2004-11-22 09:38:15 51°9.924 2°36.687 20.6   11.7 101550 94
2004-11-22 09:38:19 51°9.923 2°36.666 20.3 354 11.7 101530 94
2004-11-22 09:38:32 51°9.922 2°36.599 21.5 356 11.7 101540 94
2004-11-22 09:38:34 51°9.922 2°36.588 21.3 354 11.7 101540 94
2004-11-22 09:38:40 51°9.921 2°36.557 21.8 357 11.7 101550 94
2004-11-22 09:38:45 51°9.921 2°36.531 21.8 351 11.7 101550 94
2004-11-22 09:38:50 51°9.921 2°36.505 20.1 356 11.7 101540 94
2004-11-22 09:38:54 51°9.92 2°36.485 21.4 357 11.7 101540 94
2004-11-22 09:38:59 51°9.92 2°36.459 21.7 359 11.7 101540 94
2004-11-22 09:39:06 51°9.919 2°36.423 21.5 354 11.7 101540 94
2004-11-22 09:39:10 51°9.918 2°36.402 22   11.7 101550 94
2004-11-22 09:39:16 51°9.918 2°36.371 20.4 359 11.7 101550 94
2004-11-22 09:39:21 51°9.918 2°36.345 19 359 11.7 101530 94
2004-11-22 09:39:24 51°9.917 2°36.33 19.2   11.7 101530 94
2004-11-22 09:39:34 51°9.916 2°36.279 21.4 357 11.8 101540 94
2004-11-22 09:39:40 51°9.915 2°36.248 22.6 350 11.8 101550 94
2004-11-22 09:39:46 51°9.915 2°36.218 18.5 352 11.8 101550 94
2004-11-22 09:39:50 51°9.915 2°36.198 18.2 350 11.8 101550 94
2004-11-22 09:39:56 51°9.917 2°36.168 19.8 348 11.8 101550 94
2004-11-22 09:40:00 51°9.919 2°36.148 19.9 343 11.7 101550 94
2004-11-22 09:40:06 51°9.925 2°36.119 19.8 339 11.7 101550 94
2004-11-22 09:40:11 51°9.93 2°36.094 20.6 341 11.7 101530 94
2004-11-22 09:40:16 51°9.936 2°36.07 19.9 340 11.7 101530 94
2004-11-22 09:40:21 51°9.943 2°36.046 19.8 341 11.7 101560 94
2004-11-22 09:40:34 51°9.963 2°35.986 19.7 330 11.7 101560 94
2004-11-22 09:40:39 51°9.973 2°35.964 18.5 331 11.7 101540 94
2004-11-22 09:40:44 51°9.984 2°35.944 18.6 326 11.7 101540 94
2004-11-22 09:40:47 51°9.991 2°35.932 17.4 318 11.7 101540 94
2004-11-22 09:40:52 51°10.004 2°35.912 17.4 319 11.7 101540 94
2004-11-22 09:40:57 51°10.018 2°35.895 16.9 319 11.7 101510 94
2004-11-22 09:41:01 51°10.03 2°35.882 16.9 311 11.7 101510 94
2004-11-22 09:41:06 51°10.046 2°35.869 17.2 314 11.7 101540 94
2004-11-22 09:41:12 51°10.066 2°35.853 18.4 310 11.7 101540 94
2004-11-22 09:41:19 51°10.089 2°35.838 18.9 308 11.7 101510 94
2004-11-22 09:41:24 51°10.107 2°35.828 17 309 11.7 101510 94
2004-11-22 09:41:28 51°10.121 2°35.821 17.7 298 11.7 101550 94
2004-11-22 09:41:31 51°10.131 2°35.816 16 302 11.7 101550 94
2004-11-22 09:41:39 51°10.16 2°35.807 16.7 301 11.7 101520 94
2004-11-22 09:41:44 51°10.179 2°35.806 15.7 294 11.7 101520 94
2004-11-22 09:41:48 51°10.194 2°35.804 14.4 286 11.7 101550 94
2004-11-22 09:41:53 51°10.213 2°35.809 13.1 282 11.7 101550 94
2004-11-22 09:41:59 51°10.236 2°35.815 12.7 278 11.7 101520 94
2004-11-22 09:42:03 51°10.251 2°35.823 12.7 266 11.7 101520 94
2004-11-22 09:42:09 51°10.272 2°35.838 8.7 260 11.7 101530 94
2004-11-22 09:42:14 51°10.29 2°35.852 11.7 267 11.7 101530 94
2004-11-22 09:42:19 51°10.308 2°35.865 11.4 270 11.7 101560 94
2004-11-22 09:42:24 51°10.327 2°35.876 10.1 261 11.7 101560 94
2004-11-22 09:42:28 51°10.341 2°35.891 12.3 260 11.7 101580 94
2004-11-22 09:42:34 51°10.363 2°35.904 7 254 11.7 101580 94
2004-11-22 09:42:38 51°10.377 2°35.917 7.8 258 11.7 101590 94
2004-11-22 09:42:43 51°10.395 2°35.931 11.6 257 11.7 101590 94
2004-11-22 09:42:49 51°10.417 2°35.95 11.4 266 11.7 101580 94
2004-11-22 09:42:54 51°10.436 2°35.963 9.1 260 11.7 101580 94
2004-11-22 09:42:59 51°10.454 2°35.978 12 261 11.7 101610 94
2004-11-22 09:43:03 51°10.469 2°35.987 7.9 267 11.7 101610 94
2004-11-22 09:43:07 51°10.482 2°36.003 12.4 259 11.7 101600 94
2004-11-22 09:43:14 51°10.508 2°36.021 6.4 251 11.7 101600 94
2004-11-22 09:43:17 51°10.517 2°36.033 11.2 261 11.7 101610 94
2004-11-22 09:43:25 51°10.548 2°36.054 9.6 260 11.7 101610 94
2004-11-22 09:43:32 51°10.573 2°36.077 9.4 259 11.7 101610 94
2004-11-22 09:43:36 51°10.588 2°36.088 7.4 255 11.7 101610 94
2004-11-22 09:43:40 51°10.602 2°36.102 6.5 250 11.7 101610 94
2004-11-22 09:43:46 51°10.622 2°36.122 6.9 252 11.7 101580 94
2004-11-22 09:43:52 51°10.643 2°36.14 4.6 253 11.7 101580 94
2004-11-22 09:43:56 51°10.657 2°36.156 11.6 262 11.7 101600 94
2004-11-22 09:44:02 51°10.679 2°36.173 7.9 259 11.7 101600 94
2004-11-22 09:44:07 51°10.697 2°36.191 10 256 11.7 101610 94
2004-11-22 09:44:12 51°10.715 2°36.207 6 254 11.7 101610 94
2004-11-22 09:44:17 51°10.733 2°36.223 9.1 263 11.6 101610 94
2004-11-22 09:44:22 51°10.752 2°36.239 7.9 259 11.6 101610 94
2004-11-22 09:44:26 51°10.766 2°36.252 6.9 257 11.6 101610 94
2004-11-22 09:44:32 51°10.787 2°36.273 9.4 266 11.6 101610 94
2004-11-22 09:44:36 51°10.802 2°36.287 8.5 269 11.6 101610 94
2004-11-22 09:44:42 51°10.823 2°36.306 6.6 257 11.6 101610 94
2004-11-22 09:44:47 51°10.839 2°36.327 7.3 254 11.6 101600 94
2004-11-22 09:44:52 51°10.857 2°36.342 5.2 251 11.6 101600 94
2004-11-22 09:44:57 51°10.873 2°36.362 9.2 267 11.7 101600 94
2004-11-22 09:45:02 51°10.891 2°36.378 5.5 255 11.7 101600 94
2004-11-22 09:45:06 51°10.905 2°36.392 9.9 258 11.6 101610 94
2004-11-22 09:45:12 51°10.927 2°36.411 9.1 263 11.6 101610 94
2004-11-22 09:45:17 51°10.945 2°36.428 6.9 255 11.6 101610 94
2004-11-22 09:45:22 51°10.962 2°36.446 6.4 258 11.6 101610 94
2004-11-22 09:45:27 51°10.98 2°36.462 6 250 11.6 101600 94
2004-11-22 09:45:30 51°10.989 2°36.476 7.3 253 11.6 101600 94
2004-11-22 09:45:36 51°11.01 2°36.495 5.9 251 11.6 101590 94
2004-11-22 09:45:42 51°11.029 2°36.52 8.8 259 11.6 101590 94
2004-11-22 09:45:46 51°11.044 2°36.531 5.9 252 11.6 101590 94
2004-11-22 09:45:52 51°11.064 2°36.552 7.5 250 11.6 101610 94
2004-11-22 09:45:55 51°11.074 2°36.564 8 254 11.6 101610 94
2004-11-22 09:46:02 51°11.098 2°36.587 7.1 256 11.6 101590 94
2004-11-22 09:46:12 51°11.133 2°36.622 7.4 263 11.6 101590 94
2004-11-22 09:46:19 51°11.158 2°36.644 7.7 256 11.6 101610 94
2004-11-22 09:46:24 51°11.175 2°36.662 6.9 261 11.6 101610 94
2004-11-22 09:46:29 51°11.193 2°36.678 10 263 11.6 101600 94
2004-11-22 09:46:34 51°11.21 2°36.696 5.2 250 11.6 101600 94
2004-11-22 09:46:38 51°11.223 2°36.713 11.9 262 11.6 101600 94
2004-11-22 09:46:42 51°11.238 2°36.722 6.4 246 11.6 101600 94
2004-11-22 09:46:52 51°11.272 2°36.759 7.5 241 11.6 101600 94
2004-11-22 09:46:58 51°11.291 2°36.784 9.9 258 11.6 101610 94
2004-11-22 09:47:04 51°11.312 2°36.803 10.6 258 11.6 101610 94
2004-11-22 09:47:09 51°11.329 2°36.822 8.6 253 11.6 101610 94
2004-11-22 09:47:14 51°11.347 2°36.836 6.6 252 11.6 101610 94
2004-11-22 09:47:18 51°11.361 2°36.851 8.8 249 11.6 101610 94
2004-11-22 09:47:29 51°11.4 2°36.888 8.6 262 11.6 101600 94
2004-11-22 09:47:39 51°11.434 2°36.924 8.2 248 11.7 101610 94
2004-11-22 09:47:44 51°11.451 2°36.94 6 258 11.7 101610 94
2004-11-22 09:47:46 51°11.457 2°36.948 6.3 253 11.6 101610 94
2004-11-22 09:47:54 51°11.485 2°36.974 5.1 255 11.6 101610 94
2004-11-22 09:47:59 51°11.502 2°36.993 6.7 255 11.6 101610 94
2004-11-22 09:48:04 51°11.52 2°37.009 5 255 11.6 101610 94
2004-11-22 09:48:08 51°11.533 2°37.025 10.6 266 11.6 101610 94
2004-11-22 09:48:12 51°11.548 2°37.035 7.3 252 11.6 101610 94
2004-11-22 09:48:18 51°11.569 2°37.056 8.2 259 11.6 101600 94
2004-11-22 09:48:24 51°11.59 2°37.074 6.9 258 11.6 101600 94
2004-11-22 09:48:29 51°11.607 2°37.093 7.2 274 11.6 101600 94
2004-11-22 09:48:34 51°11.625 2°37.109 6 256 11.6 101600 94
2004-11-22 09:48:39 51°11.642 2°37.127 10.7 261 11.6 101600 94
2004-11-22 09:48:44 51°11.659 2°37.143 8.7 253 11.6 101600 94
2004-11-22 09:48:48 51°11.673 2°37.155 7 257 11.6 101610 94
2004-11-22 09:48:52 51°11.688 2°37.169 6.9 254 11.6 101610 94
2004-11-22 09:48:58 51°11.708 2°37.188 4.9 253 11.6 101610 94
2004-11-22 09:49:02 51°11.721 2°37.204 5.9 256 11.6 101610 94
2004-11-22 09:49:09 51°11.745 2°37.228 5.1 255 11.7 101600 94
2004-11-22 09:49:14 51°11.762 2°37.244 8.3 259 11.7 101600 94
2004-11-22 09:49:18 51°11.777 2°37.255 5.3 258 11.7 101600 94
2004-11-22 09:49:22 51°11.789 2°37.27 5.9 257 11.7 101600 94
2004-11-22 09:49:34 51°11.83 2°37.311 7.2 245 11.7 101600 94
2004-11-22 09:49:39 51°11.847 2°37.328 6.9 251 11.7 101580 94
2004-11-22 09:49:44 51°11.863 2°37.346 5.7 257 11.7 101580 94
2004-11-22 09:49:49 51°11.88 2°37.364 8.5 259 11.6 101600 94
2004-11-22 09:49:54 51°11.898 2°37.38 5.3 253 11.6 101600 94
2004-11-22 09:49:58 51°11.911 2°37.396 8 256 11.6 101600 94
2004-11-22 09:50:04 51°11.932 2°37.416 9.7 258 11.6 101600 94
2004-11-22 09:50:08 51°11.947 2°37.428 7.1 252 11.6 101600 94
2004-11-22 09:50:14 51°11.968 2°37.448 11.4 263 11.6 101600 94
2004-11-22 09:50:19 51°11.986 2°37.463 6.5 259 11.6 101610 94
2004-11-22 09:50:24 51°12.003 2°37.48 7.1 260 11.6 101610 94
2004-11-22 09:50:29 51°12.021 2°37.497 5.6 255 11.7 101600 94
2004-11-22 09:50:34 51°12.038 2°37.515 6 258 11.7 101600 94
2004-11-22 09:50:39 51°12.054 2°37.533 6.2 253 11.6 101600 94
2004-11-22 09:50:44 51°12.072 2°37.549 5.7 247 11.6 101600 94
2004-11-22 09:50:49 51°12.089 2°37.568 5.7 254 11.6 101600 94
2004-11-22 09:50:54 51°12.107 2°37.585 5.9 258 11.6 101600 94
2004-11-22 09:50:59 51°12.124 2°37.602 5.3 253 11.7 101600 94
2004-11-22 09:51:04 51°12.141 2°37.619 8.9 263 11.7 101600 94
2004-11-22 09:51:08 51°12.155 2°37.634 7.2 256 11.7 101600 94
2004-11-22 09:51:14 51°12.177 2°37.653 8.3 263 11.7 101600 94
2004-11-22 09:51:19 51°12.194 2°37.672 9.7 262 11.7 101590 94
2004-11-22 09:51:24 51°12.213 2°37.687 7.3 249 11.7 101590 94
2004-11-22 09:51:29 51°12.23 2°37.704 6.5 257 11.7 101600 94
2004-11-22 09:51:34 51°12.247 2°37.723 7.6 275 11.7 101600 94
2004-11-22 09:51:38 51°12.262 2°37.736 5.4 257 11.7 101600 94
2004-11-22 09:51:44 51°12.282 2°37.758 7.1 256 11.7 101600 94
2004-11-22 09:51:49 51°12.3 2°37.775 5.2 270 11.7 101610 94
2004-11-22 09:51:54 51°12.316 2°37.795 6.5 254 11.7 101610 94
2004-11-22 09:51:59 51°12.334 2°37.811 5.6 254 11.6 101600 94
2004-11-22 09:52:04 51°12.349 2°37.831 6.5 256 11.6 101600 94
2004-11-22 09:52:09 51°12.367 2°37.848 9.4 260 11.6 101600 94
2004-11-22 09:52:11 51°12.374 2°37.856 7.1 256 11.6 101600 94
2004-11-22 09:52:19 51°12.402 2°37.882 7.5 262 11.7 101590 94
2004-11-22 09:52:22 51°12.412 2°37.894 6 256 11.7 101590 94
2004-11-22 09:52:29 51°12.437 2°37.917 7 263 11.7 101590 94
2004-11-22 09:52:34 51°12.454 2°37.936 9.6 268 11.7 101590 94
2004-11-22 09:52:39 51°12.472 2°37.95 5.6 259 11.6 101600 94
2004-11-22 09:52:44 51°12.489 2°37.97 10.1 259 11.6 101600 94
2004-11-22 09:52:48 51°12.504 2°37.981 8.9 260 11.7 101600 94
2004-11-22 09:52:51 51°12.515 2°37.99 7 257 11.7 101600 94
2004-11-22 09:52:57 51°12.536 2°38.011 6.2 257 11.6 101590 94
2004-11-22 09:53:01 51°12.55 2°38.025 8.1 256 11.6 101590 94
2004-11-22 09:53:14 51°12.594 2°38.069 6.2 255 11.6 101590 94
2004-11-22 09:53:28 51°12.642 2°38.115 7.4 251 11.6 101590 94
2004-11-22 09:53:34 51°12.663 2°38.134 8.4 260 11.6 101590 94
2004-11-22 09:53:40 51°12.683 2°38.154 7.4 258 11.7 101600 94
2004-11-22 09:53:44 51°12.696 2°38.166 8.7 259 11.7 101600 94
2004-11-22 09:53:50 51°12.716 2°38.187 5.4 255 11.7 101590 94
2004-11-22 09:53:54 51°12.73 2°38.2 10.9 266 11.7 101590 94
2004-11-22 09:53:59 51°12.747 2°38.218 6.4 254 11.6 101600 94
2004-11-22 09:54:04 51°12.764 2°38.235 10.6 269 11.6 101600 94
2004-11-22 09:54:10 51°12.785 2°38.256 8.8 263 11.6 101600 94
2004-11-22 09:54:14 51°12.799 2°38.268 5.9 254 11.6 101600 94
2004-11-22 09:54:20 51°12.82 2°38.289 7.4 256 11.6 101600 94
2004-11-22 09:54:25 51°12.837 2°38.308 9.7 259 11.6 101600 94
2004-11-22 09:54:30 51°12.855 2°38.322 7.1 260 11.6 101600 94
2004-11-22 09:54:35 51°12.872 2°38.34 6.4 257 11.6 101600 94
2004-11-22 09:54:38 51°12.883 2°38.35 9.5 273 11.6 101590 94
2004-11-22 09:54:44 51°12.905 2°38.369 8.6 260 11.6 101590 94
2004-11-22 09:54:50 51°12.926 2°38.39 4.7 256 11.6 101600 94
2004-11-22 09:54:54 51°12.94 2°38.403 8 267 11.6 101600 94
2004-11-22 09:54:58 51°12.954 2°38.417 5.2 256 11.6 101590 94
2004-11-22 09:55:04 51°12.974 2°38.439 5.9 258 11.6 101590 94
2004-11-22 09:55:10 51°12.994 2°38.464 6 258 11.6 101600 94
2004-11-22 09:55:14 51°13.009 2°38.475 6.1 259 11.6 101600 94
2004-11-22 09:55:18 51°13.022 2°38.493 9.4 258 11.6 101600 94
2004-11-22 09:55:24 51°13.043 2°38.511 7.2 260 11.6 101600 94
2004-11-22 09:55:30 51°13.065 2°38.53 6.4 256 11.6 101600 94
2004-11-22 09:55:32 51°13.072 2°38.536 8.2 260 11.6 101600 94
2004-11-22 09:55:40 51°13.099 2°38.565 10.5 266 11.6 101600 94
2004-11-22 09:55:44 51°13.114 2°38.574 7.4 269 11.6 101600 94
2004-11-22 09:55:50 51°13.135 2°38.593 10.1 271 11.6 101600 94
2004-11-22 09:55:55 51°13.153 2°38.607 7.7 256 11.6 101600 94
2004-11-22 09:56:00 51°13.171 2°38.622 10.1 274 11.7 101600 94
2004-11-22 09:56:02 51°13.178 2°38.629 9 258 11.7 101600 94
2004-11-22 09:56:08 51°13.2 2°38.644 8.5 262 11.6 101590 94
2004-11-22 09:56:14 51°13.221 2°38.664 11.5 260 11.6 101590 94
2004-11-22 09:56:20 51°13.244 2°38.678 7.5 271 11.6 101600 94
2004-11-22 09:56:24 51°13.258 2°38.691 10.7 269 11.6 101600 94
2004-11-22 09:56:28 51°13.274 2°38.697 10.3 274 11.7 101590 94
2004-11-22 09:56:35 51°13.299 2°38.718 12.1 271 11.7 101590 94
2004-11-22 09:56:40 51°13.318 2°38.729 11.9 273 11.6 101570 94
2004-11-22 09:56:45 51°13.335 2°38.743 10.9 268 11.6 101570 94
2004-11-22 09:56:47 51°13.343 2°38.747 9.5 260 11.6 101590 94
2004-11-22 09:56:54 51°13.368 2°38.765 12.6 265 11.6 101590 94
2004-11-22 09:57:00 51°13.389 2°38.782 9.4 270 11.7 101600 94
2004-11-22 09:57:03 51°13.401 2°38.787 11.5 273 11.7 101600 94
2004-11-22 09:57:10 51°13.426 2°38.805 10.3 264 11.7 101600 94
2004-11-22 09:57:15 51°13.446 2°38.814 10.3 263 11.7 101600 94
2004-11-22 09:57:20 51°13.464 2°38.826 11.2 272 11.7 101580 94
2004-11-22 09:57:25 51°13.482 2°38.838 9.8 275 11.7 101580 94
2004-11-22 09:57:28 51°13.494 2°38.845 11.4 268 11.7 101590 94
2004-11-22 09:57:38 51°13.532 2°38.867 9.7 281 11.7 101590 94
2004-11-22 09:57:42 51°13.546 2°38.877 12.3 277 11.7 101590 94
2004-11-22 09:57:48 51°13.569 2°38.889 11.6 269 11.7 101590 93
2004-11-22 09:57:52 51°13.584 2°38.898 14 270 11.7 101590 93
2004-11-22 09:57:57 51°13.604 2°38.906 11.9 272 11.7 101600 93
2004-11-22 09:58:03 51°13.627 2°38.918 12.4 274 11.7 101600 93
2004-11-22 09:58:08 51°13.646 2°38.922 11.5 288 11.7 101580 93
2004-11-22 09:58:12 51°13.662 2°38.927 14.9 293 11.7 101580 93
2004-11-22 09:58:16 51°13.677 2°38.925 10.4 293 11.7 101580 93
2004-11-22 09:58:37 51°13.757 2°38.919 14.5 300 11.7 101570 93
2004-11-22 09:58:43 51°13.78 2°38.916 15.4 294 11.7 101570 93
2004-11-22 09:58:47 51°13.796 2°38.914 13.8 291 11.6 101570 93
2004-11-22 09:58:51 51°13.811 2°38.91 12.1 301 11.6 101570 93
2004-11-22 09:58:58 51°13.838 2°38.906 15.5 298 11.7 101570 93
2004-11-22 09:59:03 51°13.857 2°38.9 14.1 297 11.7 101570 93
2004-11-22 09:59:05 51°13.864 2°38.901 14.5 300 11.6 101560 93
2004-11-22 09:59:16 51°13.906 2°38.889 14.6 290 11.6 101560 93